Regional Weather Roundup
Issued by NWS Newport/Morehead, NC

Current Version | Previous Version | Text Only | Print | Product List | Glossary Off
Versions: 1 2 3 4 5 6 7 8 9 10 11 12 13 14 15 16 17 18 19 20 21 22 23 24 25 26 27 28 29 30 31 32 33 34 35 36 37 38 39 40 41 42 43 44 45 46 47 48 49 50
000 ASUS42 KMHX 200222 RWRMHX WEATHER ROUNDUP FOR EASTERN NORTH CAROLINA NATIONAL WEATHER SERVICE NEWPORT/MOREHEAD CITY NC 900 PM EST FRI DEC 19 2014 NOTE: "FAIR" INDICATES FEW OR NO CLOUDS BELOW 12,000 FEET WITH NO SIGNIFICANT WEATHER AND/OR OBSTRUCTIONS TO VISIBILITY NCZ015>017-031-032-045>047-102-103-200300- NORTH COAST CITY SKY/WX TMP DP RH WIND PRES REMARKS EDENTON N/A 34 30 84 NE3 30.21S ELIZABETH CITY MOCLDY 41 30 65 NE7 30.22R KITTY HAWK PTCLDY 40 31 71 N3 30.20R MANTEO PTCLDY 39 32 75 N6 30.21S $$ NCZ045>047-081-094-103-104-200300- CENTRAL COAST CITY SKY/WX TMP DP RH WIND PRES REMARKS FRISCO MOCLDY 41 34 76 NE5 30.20S SWANQUARTER N/A 37 N/A N/A E3 30.18R $$ NCZ095-097-098-100-101-200300- SOUTHERN COAST CITY SKY/WX TMP DP RH WIND PRES REMARKS BEAUFORT MOCLDY 42 33 70 NE5 30.21R CEDAR ISLAND N/A 45 N/A N/A N7 30.24S JACKSONVILLE PTCLDY 44 32 62 NE5 30.20R PINEY ISLAND MOCLDY 47 37 68 NE7 30.20R WILMINGTON MOCLDY 42 37 82 NE5 30.19R $$ NCZ011>013-027>030-043-044-078>080-089-090>093-098-200300- COASTAL PLAIN CITY SKY/WX TMP DP RH WIND PRES REMARKS AHOSKIE MOCLDY 31 28 88 CALM 30.22R CLINTON MOCLDY 44 33 66 CALM 30.19S ELIZABETHTOWN PTCLDY 46 32 59 CALM 30.18S GOLDSBORO PTCLDY 40 38 92 CALM 30.18R GREENVILLE MOCLDY 36 32 87 CALM 30.22R HAVELOCK PTCLDY 41 34 76 CALM 30.21R KENANSVILLE PTCLDY 38 32 81 CALM 30.21R KINSTON PTCLDY 36 32 87 CALM 30.21R NEW BERN PTCLDY 39 32 76 CALM 30.22R RICHLANDS PTCLDY 39 30 70 CALM 30.20S ROCKY MOUNT MOCLDY 36 31 82 CALM 30.20S WASHINGTON MOCLDY 35 31 85 CALM 30.21R WHITEVILLE MOCLDY 45 33 63 NE5 30.17S $$ AMZ130-135-150-152-154-156-158-170-250-252-270-ANZ085-086-088-633-658-670-200300- MARINE OBSERVATIONS STATION/POSITION TIME TEMP WIND PRES WAVE SWELL AIR SEA DIR/SP/G HT/PER HT/PER (UTC) (F) (DEG/KT/KT) (MB) (FT/S) (FT/S) CHESAPEAKE LIGHT 0200 40 360/ 16/ 18 1023.4 64 E VA BEACH 0200 43 54 340/ 16/ 21 1022.0 4/ 5 2/12 DUCK 0200 42 47 10/ 10/ 12 1021.9 2 E DUCK 0200 47 N/A 3/ 6 10 NE DUCK 0200 51 N/A 4/ 6 OREGON INLET 0200 40 50 330/ 5/ 7 1022.6 13E OREGON INLT 0200 53 N/A 3/ 6 HATTERAS CG 0200 44 53 30/ 6/ 9 1022.7 DIAMOND BUOY 0200 46 1022.5 3/ 7 17 S OCRACOKE NOT AVBL CAPE LOOKOUT 0200 47 20/ 7/ 9 1022.4 BEAUFORT LAB 0200 44 53 40/ 4/ 4 1021.6 30 SE NEW RIVER 0200 52 61 30/ 8/ 10 1022.6 1/10 2/10 5 SE WRIGHTSVLE NOT AVBL 225 S CAPE HAT 0056 66 72 10/ 6/ 8 1020.6 3/11 2/11 41 SE CHARLESTON 0200 63 68 60/ 8/ 10 1019.4 2/11 2/11 $$

USA.gov is the U.S. government's official web portal to all federal, state and local government web resources and services.